Date String (YYYY-MM-DD hh:mm:ss) UTC,Instrument flags,Ambient pressure (hPa),Sample flow (lpm),Bypass flow (lpm),Sample temperature (°C),Ambient temperature (°C),ASC tube jacket temperature (°C),LED temperature (°C),Box temperature (°C),Sample RH (%),Span deviation,Mass concentration (μg/m³),Mass concentration (μg/m³),Mass concentration (μg/m³)
DateTimeUTC,F1_M11,P_M11,Q1_M11,Q2_M11,T1_M11,T2_M11,T3_M11,T4_M11,T5_M11,U1_M11,ZSPAN_M11,X2_M11,X0_M11,X1_M11
2021-12-31 20:00:00,,0809.7,5.00,0.00,21.0,21.2,00.0,30.1,22.4,17.7,0000.0,0002.51,0005.10,0001.95
2021-12-31 20:01:00,,0809.8,5.00,0.00,20.9,20.7,00.0,30.1,22.2,17.7,0000.0,0002.47,0004.71,0001.91
2021-12-31 20:02:00,,0809.7,5.00,0.00,20.8,20.3,00.0,30.1,22.0,17.8,0000.0,0002.43,0003.68,0001.87
2021-12-31 20:03:00,,0809.7,5.00,0.00,20.6,20.0,00.0,30.0,21.9,18.0,0000.0,0002.44,0003.73,0001.85
2021-12-31 20:04:00,,0809.7,5.00,0.00,20.5,19.9,00.0,30.0,21.8,18.2,0000.0,0002.41,0003.67,0001.83
2021-12-31 20:05:00,,0809.7,5.01,0.00,20.5,20.2,00.0,29.9,21.9,18.3,0000.0,0002.45,0003.76,0001.83
2021-12-31 20:06:00,,0809.7,4.99,0.00,20.7,21.3,00.0,30.0,22.4,18.3,0000.0,0002.45,0003.74,0001.82
2021-12-31 20:07:00,,0809.8,5.01,0.00,20.9,22.2,00.0,30.0,22.8,18.2,0000.0,0002.50,0003.85,0001.83
2021-12-31 20:08:00,,0809.7,4.99,0.00,21.1,22.6,00.0,30.1,23.0,18.1,0000.0,0002.53,0003.93,0001.83
2021-12-31 20:09:00,,0809.7,5.00,0.00,21.1,22.1,00.0,30.1,22.8,18.1,0000.0,0002.51,0003.92,0001.83
2021-12-31 20:10:00,,0809.7,5.02,0.00,21.0,21.5,00.0,30.1,22.5,18.2,0000.0,0002.52,0003.97,0001.84
2021-12-31 20:11:00,,0809.6,5.00,0.00,20.8,21.0,00.0,30.0,22.2,18.3,0000.0,0002.54,0004.19,0001.84
2021-12-31 20:12:00,,0809.6,5.00,0.00,20.7,20.5,00.0,30.0,22.0,18.4,0000.0,0002.56,0004.85,0001.85
2021-12-31 20:13:00,,0809.6,5.00,0.00,20.6,20.1,00.0,29.9,21.8,18.6,0000.0,0002.56,0005.00,0001.87
2021-12-31 20:14:00,,0809.6,5.00,0.00,20.5,19.8,00.0,29.9,21.7,18.8,0000.0,0002.56,0005.02,0001.89
2021-12-31 20:15:00,,0809.6,4.99,0.00,20.5,20.6,00.0,29.9,22.0,18.9,0000.0,0002.62,0005.34,0001.92
2021-12-31 20:16:00,,0809.6,5.01,0.00,20.7,21.6,00.0,29.9,22.4,18.8,0000.0,0002.64,0005.90,0001.94
2021-12-31 20:17:00,,0809.5,5.01,0.00,20.9,22.4,00.0,30.0,22.8,18.7,0000.0,0002.65,0006.30,0001.95
2021-12-31 20:18:00,,0809.5,4.99,0.00,21.0,22.3,00.0,30.0,22.9,18.6,0000.0,0002.66,0006.36,0001.94
2021-12-31 20:19:00,,0809.5,5.01,0.00,21.0,21.8,00.0,30.0,22.6,18.7,0000.0,0002.67,0006.68,0001.95
2021-12-31 20:20:00,,0809.6,4.98,0.00,20.9,21.3,00.0,30.0,22.4,18.9,0000.0,0002.76,0006.84,0001.96
2021-12-31 20:21:00,,0809.6,5.02,0.00,20.8,20.8,00.0,30.0,22.2,19.0,0000.0,0002.80,0007.71,0001.96
2021-12-31 20:22:00,,0809.7,4.98,0.00,20.7,20.4,00.0,29.9,22.0,19.2,0000.0,0002.77,0007.68,0001.98
2021-12-31 20:23:00,,0809.8,5.01,0.00,20.6,20.1,00.0,29.9,21.8,19.4,0000.0,0002.78,0007.42,0002.01
2021-12-31 20:24:00,,0809.7,5.01,0.00,20.5,19.8,00.0,29.9,21.7,19.6,0000.0,0002.77,0007.33,0002.03
2021-12-31 20:25:00,,0809.6,4.98,0.00,20.4,19.9,00.0,29.8,21.7,19.8,0000.0,0002.77,0007.34,0002.04
2021-12-31 20:26:00,,0809.5,5.01,0.00,20.5,20.9,00.0,29.8,22.1,19.7,0000.0,0002.77,0007.15,0002.04
2021-12-31 20:27:00,,0809.5,4.98,0.00,20.7,22.0,00.0,29.9,22.6,19.5,0000.0,0002.79,0006.59,0002.05
2021-12-31 20:28:00,,0809.5,5.01,0.00,21.0,22.7,00.0,29.9,22.9,19.3,0000.0,0002.77,0006.45,0002.07
2021-12-31 20:29:00,,0809.5,4.98,0.00,21.0,22.3,00.0,30.0,22.8,19.2,0000.0,0002.82,0006.63,0002.09
2021-12-31 20:30:00,,0809.5,5.01,0.00,20.9,21.7,00.0,30.0,22.5,19.2,0000.0,0002.81,0006.44,0002.11
2021-12-31 20:31:00,,0809.6,5.01,0.00,20.8,21.1,00.0,29.9,22.3,19.3,0000.0,0002.75,0006.51,0002.12
2021-12-31 20:32:00,,0809.5,4.99,0.00,20.7,20.7,00.0,29.9,22.1,19.4,0000.0,0002.71,0005.29,0002.13
2021-12-31 20:33:00,,0809.6,5.00,0.00,20.6,20.3,00.0,29.9,21.9,19.6,0000.0,0002.76,0006.33,0002.13
2021-12-31 20:34:00,,0809.7,5.01,0.00,20.5,20.1,00.0,29.9,21.8,19.7,0000.0,0002.77,0006.34,0002.12
2021-12-31 20:35:00,,0809.8,4.99,0.00,20.4,19.8,00.0,29.8,21.7,19.9,0000.0,0002.83,0006.53,0002.13
2021-12-31 20:36:00,,0809.7,5.00,0.00,20.4,19.8,00.0,29.8,21.6,20.0,0000.0,0002.85,0006.52,0002.15
2021-12-31 20:37:00,,0809.8,5.01,0.00,20.5,20.7,00.0,29.8,22.0,19.8,0000.0,0002.86,0006.58,0002.15
2021-12-31 20:38:00,,0810.0,5.00,0.00,20.7,21.7,00.0,29.8,22.5,19.6,0000.0,0002.85,0006.59,0002.14
2021-12-31 20:39:00,,0809.9,4.99,0.00,20.9,22.5,00.0,29.9,22.8,19.4,0000.0,0002.89,0006.55,0002.14
2021-12-31 20:40:00,,0809.9,5.01,0.00,21.0,22.3,00.0,29.9,22.8,19.2,0000.0,0002.80,0006.20,0002.12
2021-12-31 20:41:00,,0809.7,5.00,0.00,20.9,21.8,00.0,29.9,22.6,19.3,0000.0,0002.82,0006.11,0002.10
2021-12-31 20:42:00,,0809.7,5.00,0.00,20.8,21.3,00.0,29.9,22.3,19.3,0000.0,0002.79,0005.84,0002.08
2021-12-31 20:43:00,,0809.7,4.99,0.00,20.7,20.8,00.0,29.9,22.1,19.5,0000.0,0002.74,0005.52,0002.06
2021-12-31 20:44:00,,0809.8,5.01,0.00,20.6,20.4,00.0,29.9,21.9,19.6,0000.0,0002.68,0004.42,0002.06
2021-12-31 20:45:00,,0809.7,5.00,0.00,20.5,20.1,00.0,29.8,21.7,19.8,0000.0,0002.64,0004.29,0002.04
2021-12-31 20:46:00,,0809.6,5.00,0.00,20.4,19.8,00.0,29.8,21.7,19.9,0000.0,0002.56,0004.09,0002.02
2021-12-31 20:47:00,,0809.5,4.99,0.00,20.5,20.6,00.0,29.8,22.0,19.9,0000.0,0002.52,0004.11,0001.99
2021-12-31 20:48:00,,0809.6,4.99,0.00,20.7,21.6,00.0,29.8,22.4,19.7,0000.0,0002.48,0004.41,0001.96
2021-12-31 20:49:00,,0809.6,5.00,0.00,20.9,22.5,00.0,29.9,22.8,19.4,0000.0,0002.47,0004.38,0001.95
2021-12-31 20:50:00,,0809.7,5.01,0.00,21.0,22.4,00.0,29.9,22.8,19.3,0000.0,0002.43,0004.23,0001.93
2021-12-31 20:51:00,,0809.8,4.99,0.00,21.0,21.8,00.0,29.9,22.6,19.3,0000.0,0002.44,0004.34,0001.92
2021-12-31 20:52:00,,0809.7,5.01,0.00,20.9,21.3,00.0,29.9,22.4,19.4,0000.0,0002.38,0004.19,0001.91
2021-12-31 20:53:00,,0809.7,4.99,0.00,20.8,20.8,00.0,29.9,22.2,19.5,0000.0,0002.39,0004.24,0001.91
2021-12-31 20:54:00,,0809.7,4.99,0.00,20.7,20.4,00.0,29.9,22.0,19.5,0000.0,0002.43,0004.33,0001.89
2021-12-31 20:55:00,,0809.7,5.00,0.00,20.6,20.1,00.0,29.9,21.8,19.7,0000.0,0002.44,0004.63,0001.86
2021-12-31 20:56:00,,0809.7,4.99,0.00,20.5,19.9,00.0,29.8,21.7,19.8,0000.0,0002.44,0005.81,0001.84
2021-12-31 20:57:00,,0809.8,5.01,0.00,20.4,19.7,00.0,29.8,21.6,19.9,0000.0,0002.42,0005.75,0001.82
2021-12-31 20:58:00,,0809.8,4.99,0.00,20.4,20.3,00.0,29.7,21.8,19.9,0000.0,0002.41,0005.68,0001.81
2021-12-31 20:59:00,,0809.7,5.02,0.00,20.6,21.3,00.0,29.8,22.3,19.8,0000.0,0002.42,0005.45,0001.84
